EHI
3 3 2 1 0 0 0 0 0 1 1 1 0 1 2 3 3 3 4 7 15 21 18 18 27 39 48 53 52 44 33 23 14 8 7 6 5 4 3 3 3 3 3 3 3 3 1 0 0
3 3 2 1 0 0 0 0 0 0 0 0 0 1 2 4 5 4 5 9 17 23 20 19 26 37 45 50 48 38 27 20 14 9 7 6 5 4 3 3 3 3 3 3 3 3 2 1 0
3 2 1 0 0 0 0 0 0 1 1 1 1 1 2 4 5 5 8 15 22 25 22 21 27 35 42 47 44 32 22 16 12 9 7 6 4 3 3 3 3 3 3 3 3 3 3 2 1
2 1 0 0 0 0 0 0 1 2 2 2 2 1 2 3 4 7 14 22 26 26 23 24 30 37 43 44 38 28 19 13 9 6 6 5 4 3 3 3 3 3 3 3 3 3 3 3 3
1 0 0 0 0 0 0 0 1 2 3 3 4 4 5 6 7 11 19 27 30 29 26 29 36 42 43 41 34 25 17 10 5 4 4 4 3 3 3 3 3 3 3 3 3 3 3 3 3
0 0 0 0 0 0 0 0 1 3 3 4 5 8 11 11 13 16 23 29 33 33 31 33 38 40 40 38 33 26 16 8 5 4 3 3 3 3 3 3 3 3 3 3 3 3 3 3 3
0 0 0 0 0 0 0 0 2 3 3 4 6 10 14 16 19 22 26 29 30 32 33 33 32 31 31 33 32 28 19 10 6 5 4 3 3 3 4 3 3 3 3 3 3 3 3 3 3
0 0 0 0 0 0 0 0 1 3 3 4 7 11 16 20 23 25 27 26 23 23 25 25 23 20 20 23 26 25 20 14 8 4 3 2 2 3 4 4 4 3 3 3 3 3 3 3 3
0 0 0 0 0 0 1 0 0 1 2 5 9 16 22 25 25 24 23 20 15 12 11 13 13 12 12 14 16 16 15 11 7 3 1 1 1 1 2 5 5 4 3 3 3 3 3 3 3
0 0 0 0 0 1 2 1 1 2 2 6 14 23 29 28 22 18 17 15 10 6 4 5 8 8 8 8 8 7 5 4 3 1 0 0 0 0 1 2 4 4 3 3 3 3 3 3 3
0 0 0 0 0 1 2 3 5 6 4 6 16 29 32 26 18 13 12 10 7 6 4 4 5 6 5 4 3 1 0 0 0 0 0 0 0 0 0 0 1 1 1 1 2 3 3 3 3
0 0 0 0 0 1 3 5 7 7 5 6 16 28 29 21 15 12 10 6 4 5 5 4 4 3 2 2 2 1 0 0 0 0 0 0 0 0 0 0 0 0 0 0 1 1 2 3 3
0 0 0 0 0 2 5 7 6 5 4 7 18 25 23 15 11 11 8 4 3 4 5 4 3 1 1 1 1 1 0 0 0 0 0 0 0 0 0 0 0 0 0 0 0 0 1 2 2
0 0 0 0 0 3 5 5 4 4 4 8 15 18 15 10 7 6 5 2 1 2 3 3 2 1 0 0 0 0 0 0 0 0 0 0 0 0 0 0 0 0 0 0 0 0 0 1 1
0 0 0 0 0 2 3 3 3 3 5 7 9 9 8 7 5 3 2 1 0 0 1 2 1 1 0 0 0 0 0 0 0 0 0 0 0 0 0 0 0 0 0 0 0 0 0 0 0
0 0 0 0 0 0 1 1 2 4 5 6 6 5 6 5 3 1 2 2 1 0 0 1 2 1 0 0 0 0 0 0 0 0 0 0 0 0 0 0 0 0 0 0 0 0 0 0 0
0 0 0 0 0 0 0 0 2 5 6 5 4 4 4 3 1 1 2 2 1 0 0 1 1 1 0 0 0 0 0 0 0 0 0 0 0 0 0 0 0 0 0 0 0 0 0 0 0
0 0 0 0 0 0 0 0 2 5 5 4 3 3 4 3 1 1 2 2 1 1 0 0 0 0 0 0 0 0 0 0 0 0 0 0 0 0 0 0 0 0 0 0 0 0 0 0 0
0 0 0 0 0 0 0 0 2 4 4 3 3 4 4 2 1 2 2 2 1 0 0 0 0 0 0 0 0 0 0 0 0 0 0 0 0 0 0 0 0 0 0 0 0 0 0 0 0
0 0 0 0 0 0 0 0 1 3 3 2 2 3 3 1 1 1 2 1 1 0 0 0 0 0 0 0 0 0 0 0 0 0 0 0 0 0 0 0 0 0 0 0 0 0 0 0 0
0 0 0 0 0 0 0 0 0 1 1 1 1 2 2 1 0 0 0 0 0 0 0 0 0 0 0 0 0 0 0 0 0 0 0 0 0 0 0 0 0 0 0 0 0 0 0 0 0
0 0 0 0 0 0 0 0 0 0 0 0 0 0 1 1 1 0 0 0 0 0 0 0 0 0 0 0 0 0 0 0 0 0 0 0 0 0 0 0 0 0 0 0 0 0 0 0 0
0 0 0 0 0 0 0 0 0 0 0 0 0 0 1 2 1 0 0 0 0 1 1 1 0 0 0 0 0 0 0 0 0 0 0 0 0 0 0 0 0 0 0 0 0 0 0 0 0
0 0 0 0 0 0 0 0 0 0 0 0 0 0 1 2 1 0 0 0 0 1 2 2 1 0 0 0 0 0 0 0 0 0 0 0 0 0 0 0 0 0 0 0 0 0 0 0 0
0 0 0 0 0 0 0 0 0 0 0 0 1 1 2 2 1 0 0 0 0 1 2 2 1 0 0 0 0 0 0 0 0 0 0 0 0 0 0 0 0 0 0 0 0 0 0 0 0
0 0 0 0 0 0 0 0 0 0 0 0 1 2 3 2 1 0 0 0 0 0 1 1 1 0 0 0 0 0 0 0 0 0 0 0 0 0 0 0 0 0 0 0 0 0 0 0 0
0 0 0 0 0 0 0 0 0 0 0 1 2 3 3 2 2 1 0 0 0 0 0 0 0 0 0 0 0 0 0 0 0 0 0 0 0 0 0 0 0 0 0 0 0 0 0 0 0
0 0 0 0 0 0 0 0 0 0 0 1 2 2 1 1 1 1 0 0 0 0 0 0 0 0 0 0 0 0 0 0 0 0 0 0 0 0 0 0 0 0 0 0 0 0 0 0 0
0 0 0 0 0 0 0 0 0 0 0 0 1 1 0 0 0 0 0 0 0 0 0 0 0 0 0 0 1 1 1 0 0 0 0 0 0 0 0 0 0 0 0 0 0 0 0 0 0
0 0 0 0 0 0 0 0 0 0 0 0 0 0 0 0 0 0 0 0 0 0 0 0 0 0 0 0 1 2 1 0 0 0 0 0 0 0 0 0 0 0 0 0 0 0 0 0 0
Wind_Speed
6 3 1 1 3 3 1 1 3 4 3 2 3 2 1 2 2 3 1 7 12 11 9 12 14 14 15 15 15 15 15 14 13 13 12 12 11 10 10 9 9 9 8 8 8 8 8 8 8
4 2 1 2 3 2 3 3 4 4 5 5 3 2 1 1 1 3 4 7 12 11 8 10 14 14 14 14 14 14 14 13 13 12 11 11 10 9 9 8 8 8 7 7 7 8 8 8 8
4 1 2 3 2 2 3 3 4 4 5 5 4 2 2 1 3 4 5 10 10 9 7 10 16 15 14 13 13 13 13 12 12 11 10 10 9 8 8 7 7 7 6 7 7 7 7 7 6
2 2 3 3 2 3 3 4 5 6 3 3 4 3 2 1 4 6 11 11 10 8 7 9 15 14 14 13 13 12 12 11 11 10 9 9 8 7 7 6 6 5 5 5 5 5 5 5 5
3 3 4 2 3 3 3 2 5 4 4 4 4 4 1 1 8 13 12 11 10 8 6 8 14 14 14 13 13 12 12 11 10 9 9 8 7 6 6 5 5 4 4 4 4 4 4 4 4
3 4 3 1 4 3 2 1 1 3 3 3 3 4 2 4 10 12 12 10 8 8 6 7 13 14 14 13 13 12 12 11 10 9 8 7 6 5 5 4 4 3 3 3 3 2 2 2 2
3 3 2 2 3 3 2 0 1 2 3 3 2 4 2 4 7 10 10 9 7 7 6 5 6 9 12 13 12 12 11 10 9 8 7 6 6 5 5 4 4 4 3 3 3 2 2 2 1
4 4 1 2 3 4 2 1 1 2 2 1 2 5 5 7 10 10 9 8 7 6 5 4 4 4 5 6 10 11 10 9 8 7 7 5 4 4 3 3 4 4 4 4 4 3 2 2 2
4 4 2 5 5 5 3 2 2 1 1 1 0 1 5 14 13 12 9 7 6 6 4 4 4 4 4 4 6 8 8 7 6 4 5 4 1 1 0 1 3 4 4 4 3 3 3 2 1
4 3 7 6 4 4 5 4 4 2 2 1 1 3 11 13 12 13 12 11 9 7 5 4 4 4 4 4 4 3 3 4 3 3 3 3 2 2 2 2 0 0 1 1 1 1 1 1 1
5 7 5 4 4 4 4 3 3 3 3 4 5 9 12 13 11 11 11 10 9 8 7 5 4 4 3 3 3 3 3 3 3 4 4 3 3 2 3 2 3 3 3 2 2 2 1 1 1
4 6 4 4 1 3 4 4 2 3 3 1 4 10 12 12 11 10 11 10 8 8 7 5 5 4 3 3 3 3 3 3 3 3 4 3 2 2 2 2 2 2 1 2 2 1 2 1 1
4 4 2 2 1 2 3 2 1 2 0 2 6 7 9 9 9 8 7 7 7 7 6 6 6 5 4 4 4 4 3 3 3 3 3 3 3 2 2 2 2 2 2 2 2 2 2 2 2
2 1 1 1 2 2 3 1 1 2 2 4 6 6 6 8 7 6 6 6 7 7 7 6 6 6 5 4 4 4 4 4 3 3 3 4 3 3 3 3 3 3 2 2 2 2 2 2 2
1 2 3 1 1 1 3 1 2 1 3 4 5 5 6 6 7 7 7 7 7 7 6 6 7 6 6 6 5 4 4 4 3 3 3 4 3 3 3 3 3 2 2 3 3 3 3 2 2
2 2 2 3 2 2 3 4 2 3 4 4 3 4 4 4 5 6 6 6 6 6 7 7 7 7 6 5 5 4 3 4 3 3 3 3 4 4 3 3 3 2 3 3 3 3 3 3 2
3 2 4 3 2 3 3 5 1 2 3 3 3 3 5 5 5 5 7 7 7 7 7 6 7 7 7 6 5 4 4 3 3 2 2 3 3 4 4 3 2 3 3 3 3 3 2 2 3
5 4 4 4 1 3 3 3 1 2 3 3 3 3 4 6 6 6 7 6 6 5 5 6 6 6 7 5 5 4 3 2 2 2 2 3 3 4 4 3 3 3 3 3 3 3 3 2 2
4 4 5 4 0 2 2 2 2 3 3 3 4 5 6 6 5 6 8 8 7 6 6 6 7 6 6 4 4 3 2 2 1 1 2 3 3 3 3 3 3 3 3 3 2 2 3 4 3
4 4 3 1 2 1 1 2 2 3 4 5 5 6 6 4 4 5 7 8 7 7 6 6 6 7 6 4 3 3 3 2 1 1 1 2 3 3 3 3 3 3 3 3 3 2 2 3 4
2 4 3 2 1 3 2 4 1 2 2 3 4 4 5 7 8 8 8 8 8 8 8 8 7 7 6 5 4 4 3 3 2 1 1 2 3 3 3 4 3 2 2 2 2 2 3 2 3
3 3 2 3 2 3 3 3 4 2 3 4 5 4 5 6 7 8 8 9 10 9 8 7 7 6 6 6 5 6 4 4 4 3 2 2 2 3 3 4 3 3 2 2 1 2 2 2 1
3 3 5 4 3 2 3 1 7 1 3 6 7 7 6 7 8 9 9 10 9 9 8 7 6 6 6 6 6 6 4 3 2 2 2 2 1 2 3 4 4 3 2 2 2 2 2 1 1
6 6 6 5 4 3 1 0 6 4 6 5 6 8 7 7 8 7 7 6 7 7 7 6 7 6 6 6 6 6 7 5 4 3 3 2 1 1 3 4 4 3 3 3 2 2 2 2 2
4 5 5 6 5 4 2 2 9 6 6 6 7 9 8 7 7 7 8 8 8 8 8 8 8 7 7 7 7 7 7 7 7 5 5 4 2 2 3 4 4 3 3 3 3 3 2 2 2
3 6 6 3 4 5 2 4 8 5 3 4 5 6 7 7 8 9 9 10 10 10 10 9 9 9 8 8 7 6 7 5 4 5 5 5 4 4 4 4 5 4 4 4 4 2 3 2 3
5 2 5 6 1 2 5 6 8 1 0 3 4 6 8 8 9 10 10 10 10 10 11 11 11 9 8 9 7 7 7 7 6 6 5 4 3 3 4 5 5 5 4 4 4 3 3 3 3
3 7 5 5 3 2 6 5 5 4 3 3 5 7 8 8 9 9 10 10 10 10 9 8 9 10 9 8 8 7 8 8 7 6 6 5 5 4 5 5 5 5 5 4 4 3 4 4 4
3 4 5 4 4 5 3 7 6 6 6 7 8 8 9 9 10 10 10 9 9 8 8 8 9 8 8 9 9 8 8 7 7 6 7 6 5 6 6 6 6 6 5 5 5 5 4 5 5
3 5 7 4 3 4 3 9 5 4 5 6 7 7 7 8 9 9 8 8 8 8 9 9 9 9 10 9 9 9 8 7 7 8 8 7 7 7 7 6 6 6 6 6 6 6 6 6 6
Wind_Direction
151 140 122 60 53 48 297 215 168 174 161 161 142 150 230 268 245 272 109 136 133 137 144 149 146 142 138 135 132 131 129 128 128 128 128 129 129 129 129 128 126 123 120 117 113 110 107 104 103
138 148 67 55 74 36 277 205 184 184 171 163 165 135 64 320 95 114 132 139 136 138 139 147 148 145 141 137 135 134 133 133 132 132 133 134 134 136 135 132 129 127 124 122 118 114 111 107 104
157 159 83 67 89 198 254 213 183 162 167 170 158 132 138 190 139 140 144 138 127 130 134 151 150 148 145 141 138 138 138 138 138 138 139 140 142 142 139 138 135 133 130 127 123 119 115 112 105
130 60 55 65 271 244 243 245 179 160 156 166 149 132 141 146 136 136 136 136 128 126 133 151 151 150 148 146 144 143 142 143 144 145 146 147 149 148 147 147 144 142 139 134 129 125 122 120 113
72 81 58 10 277 268 273 241 177 171 167 164 153 142 130 30 120 130 135 137 136 131 137 148 152 152 152 151 149 149 149 150 150 152 155 156 156 158 158 160 158 156 156 149 142 141 137 132 123
65 68 77 293 280 271 276 285 171 158 155 156 154 138 104 121 128 133 133 133 138 138 137 144 152 153 154 155 154 154 154 155 157 160 162 163 164 168 173 174 177 181 179 175 166 164 159 152 142
105 102 170 242 268 267 238 179 180 169 161 176 159 122 107 130 130 126 127 128 131 134 131 130 143 153 157 158 158 157 157 158 160 163 166 171 176 180 191 195 199 204 207 206 206 203 201 195 194
135 106 269 255 238 251 201 174 199 159 191 162 147 151 162 156 133 120 119 123 129 128 126 122 125 131 141 154 161 158 158 160 161 166 170 172 175 181 192 202 217 221 224 225 226 227 232 230 231
110 80 243 235 219 233 184 182 193 147 157 145 339 180 149 140 136 129 132 133 141 143 128 125 125 128 132 145 159 155 152 150 144 144 143 132 84 58 34 236 224 231 236 232 235 248 254 257 270
118 171 232 225 211 210 188 193 185 172 183 187 133 122 129 139 147 149 155 157 159 163 158 141 139 138 137 146 122 104 102 101 98 90 86 75 63 45 57 24 58 351 312 271 266 271 291 340 16
173 208 243 253 230 196 178 188 169 162 214 216 177 149 146 150 158 162 164 165 169 166 164 156 149 141 137 121 116 97 92 92 87 87 89 86 70 45 40 32 26 28 39 30 20 26 31 41 53
193 244 243 272 259 162 167 160 156 185 227 215 150 148 152 161 168 170 168 168 169 163 167 160 156 147 140 124 116 109 104 99 93 85 89 90 79 57 42 40 30 38 42 45 39 46 42 34 27
217 262 273 281 23 132 125 132 138 221 273 104 128 139 157 162 173 175 168 166 160 162 165 164 160 152 144 130 126 117 114 112 110 99 88 94 91 75 56 44 39 39 51 62 59 56 55 41 33
229 235 321 358 62 78 118 99 70 242 114 118 131 145 161 156 162 163 169 170 165 169 167 161 159 155 143 133 127 129 127 123 111 103 101 95 95 92 77 58 46 42 50 65 75 71 64 47 34
83 40 341 328 91 116 99 306 227 163 131 131 137 144 156 161 162 168 175 176 171 170 158 162 158 148 142 138 136 132 133 126 117 113 104 98 95 91 87 73 55 39 51 71 70 59 52 47 35
58 56 306 267 165 161 135 258 231 128 136 142 137 139 150 165 175 173 168 168 164 159 156 163 156 143 141 139 132 130 130 124 121 118 107 102 99 97 86 74 56 43 57 66 73 56 52 34 22
21 306 273 282 180 162 178 251 254 140 151 170 169 171 173 180 181 168 163 166 163 160 155 155 142 144 144 135 124 121 119 120 124 119 111 109 104 97 89 76 58 57 62 55 67 58 57 33 7
263 266 267 264 223 159 205 258 281 168 175 200 187 183 195 197 194 175 166 161 155 151 150 144 136 139 131 119 105 94 94 102 110 120 127 123 112 105 96 83 65 64 70 57 59 66 49 37 354
238 241 264 267 169 151 238 261 241 186 199 213 205 197 208 202 187 169 162 155 152 152 152 152 145 146 139 134 135 136 146 142 130 155 152 140 131 120 107 96 77 71 76 69 70 75 52 28 3
218 247 262 311 36 83 321 294 232 197 210 214 208 203 200 183 160 157 154 156 160 157 161 160 162 162 164 153 146 141 133 137 141 143 148 162 156 148 131 120 110 97 89 71 59 70 73 30 23
229 213 227 191 65 35 10 338 288 252 221 223 222 208 196 180 178 174 168 169 165 170 173 177 178 174 167 147 120 98 82 75 91 149 187 196 180 169 149 144 133 122 109 101 81 80 94 75 29
253 253 158 121 98 351 26 314 293 260 266 237 228 214 203 187 179 180 173 175 179 181 177 178 177 175 167 155 152 150 156 170 194 186 190 190 182 181 173 162 154 147 135 131 115 97 96 106 64
179 67 81 85 103 35 20 1 293 299 256 242 225 216 206 194 187 187 185 183 182 177 178 179 175 177 173 169 167 158 159 168 156 152 175 187 197 200 191 176 168 164 160 158 139 122 113 113 125
122 76 61 57 63 11 313 72 287 245 226 227 213 211 207 197 194 192 186 174 176 176 176 176 177 189 182 176 174 174 171 166 161 174 185 196 205 218 204 184 179 179 177 178 174 164 152 149 144
84 82 25 359 6 278 264 234 255 251 227 207 197 201 202 197 192 191 186 181 184 185 186 184 185 197 190 183 186 186 181 175 180 184 191 189 193 206 209 189 187 190 194 189 180 181 189 179 177
177 138 151 213 251 289 311 256 259 261 242 203 186 184 186 193 195 196 195 192 192 194 192 190 194 201 191 191 195 190 182 179 188 190 187 193 198 205 199 193 197 201 198 194 185 192 203 195 202
139 150 151 129 138 312 297 292 302 319 133 177 179 180 192 198 198 201 198 197 196 197 198 196 197 201 197 196 191 190 189 188 193 192 190 193 200 204 199 197 201 206 204 201 190 206 217 207 217
118 139 101 111 136 288 304 294 269 275 226 202 198 202 207 201 201 204 204 203 201 202 201 195 197 202 200 194 194 198 196 196 193 184 192 199 203 202 194 199 206 210 211 207 200 215 222 218 228
107 94 103 109 145 157 268 277 233 228 218 208 214 213 208 203 204 205 207 205 202 198 195 195 199 200 198 197 197 196 197 194 188 192 200 200 200 199 202 205 207 212 216 211 207 222 224 227 238
164 164 147 148 201 172 187 267 269 239 232 216 220 219 215 210 208 206 204 197 195 198 199 200 201 203 206 198 193 199 196 188 192 203 206 200 203 205 207 207 211 218 220 215 214 227 227 226 237